Location: Pinon Hills
(34.4429°N, 117.6403°W)
Time: 04:17:11
(UTC-07:00)

Uosat F - Visible Passes

Search period start: 01 September 2014 00:00
Search period end: 11 September 2014 00:00
Orbit: 751 x 763 km, 98.7° (Epoch: 31 August)

Date Brightness Start Highest point End Pass type
(mag) Time Alt. Az. Time Alt. Az. Time Alt. Az.
01 Sep 12.4 04:40:41 10° NNE 04:45:21 38° E 04:49:59 10° SSE visible
02 Sep 13.7 04:03:10 10° ENE 04:06:00 15° E 04:08:49 10° SE visible
02 Sep 11.3 05:40:11 10° N 05:45:00 50° WNW 05:49:49 10° SSW visible
03 Sep 11.5 05:01:00 10° NNE 05:05:58 64° ESE 05:10:55 10° S visible
04 Sep 13.1 04:22:39 10° NE 04:26:43 25° E 04:30:46 10° SSE visible
04 Sep 11.9 06:01:06 10° N 06:05:28 31° WNW 06:09:49 10° SW visible
05 Sep 11.0 05:21:31 10° N 05:26:32 79° WNW 05:31:32 10° SSW visible
06 Sep 12.3 04:42:41 10° NNE 04:47:24 40° E 04:52:04 10° SSE visible
07 Sep 13.7 04:05:05 10° ENE 04:08:03 16° E 04:11:00 10° SE visible
07 Sep 11.3 05:42:14 10° N 05:47:02 48° WNW 05:51:50 10° SW visible
08 Sep 11.4 05:03:01 10° NNE 05:08:00 66° ESE 05:12:59 10° S visible
09 Sep 13.1 04:24:38 10° NE 04:28:46 25° E 04:32:53 10° SSE visible
10 Sep 11.0 05:23:33 10° N 05:28:34 76° WNW 05:33:34 10° SSW visible
